This is the latest recevied weather packets stored in our database for station/object KI4NG. If no packets are shown the sender has not sent any weather packets the latest 10 day(s).
| Time | Temp. | Humidity | Pressure | Rain* | Wind** | Luminosity | Snow |
|---|---|---|---|---|---|---|---|
| 1788115452 | 31.11° C | 61% | 1022.7 hPa | 0 mm | - | 247 W/m² | - |
| 1788115152 | 31.11° C | 61% | 1022.8 hPa | 0 mm | - | 547 W/m² | - |
| 1788114846 | 30.56° C | 62% | 1023 hPa | 0 mm | - | 739 W/m² | - |
| 1788114542 | 30.56° C | 64% | 1023.1 hPa | 0 mm | - | 730 W/m² | - |
| 1788114237 | 29.44° C | 65% | 1023 hPa | 0 mm | - | 742 W/m² | - |
| 1788113934 | 29.44° C | 65% | 1023 hPa | 0 mm | - | 188 W/m² | - |
| 1788113629 | 30° C | 62% | 1023 hPa | 0 mm | - | 735 W/m² | - |
| 1788113323 | 30° C | 64% | 1023.2 hPa | 0 mm | - | 747 W/m² | - |
| 1788113017 | 29.44° C | 66% | 1023.3 hPa | 0 mm | - | 748 W/m² | - |
| 1788112716 | 30° C | 66% | 1023.5 hPa | 0 mm | - | 325 W/m² | - |
| 1788112410 | 30.56° C | 64% | 1023.5 hPa | 0 mm | - | 728 W/m² | - |
| 1788112100 | 29.44° C | 66% | 1023.4 hPa | 0 mm | - | 715 W/m² | - |
| 1788111796 | 29.44° C | 67% | 1023.9 hPa | 0 mm | - | 733 W/m² | - |
| 1788111496 | 29.44° C | 66% | 1023.7 hPa | 0 mm | - | 764 W/m² | - |
| 1788111191 | 28.89° C | 65% | 1024 hPa | 0 mm | - | 291 W/m² | - |
| 1788110888 | 29.44° C | 67% | 1023.8 hPa | 0 mm | - | 766 W/m² | - |
| 1788110584 | 29.44° C | 69% | 1023.9 hPa | 0 mm | - | 748 W/m² | - |
| 1788110280 | 30° C | 71% | 1024 hPa | 0 mm | - | 766 W/m² | - |
| 1788109975 | 28.89° C | 71% | 1024.1 hPa | 0 mm | - | 751 W/m² | - |
| 1788109669 | 29.44° C | 72% | 1024.1 hPa | 0 mm | - | 769 W/m² | - |
| 1788109369 | 28.89° C | 73% | 1024.1 hPa | 0 mm | - | 362 W/m² | - |
| 1788109067 | 28.89° C | 74% | 1024.3 hPa | 0 mm | - | 754 W/m² | - |
| 1788108764 | 28.89° C | 73% | 1024.2 hPa | 0 mm | - | 747 W/m² | - |
| 1788108460 | 28.89° C | 73% | 1024.3 hPa | 0 mm | - | 730 W/m² | - |
| 1788108155 | 28.89° C | 72% | 1024.2 hPa | 0 mm | - | 775 W/m² | - |
* Rain latest hour (hover to see other rain measurements)
** Current wind speed in m/s (hover to see current wind gust speed)